Weather History for KVVG - April, 2013

Change the Weather History Date:

Saturday, April 27, 2013

  Actual Average (KLEE) Record (KLEE)
Temperature  
Mean Temperature 74 °F -  
Max Temperature 84 °F 82 °F 93 °F (2011)
Min Temperature 64 °F 59 °F 46 °F (1977)
Cooling Degree Days 9    
Growing Degree Days 24 (Base 50)    
Moisture  
Dew Point 62 °F    
Average Humidity 72    
Maximum Humidity 100    
Minimum Humidity 39    
Precipitation  
Precipitation 0.00 in - - ()
Sea Level Pressure  
Sea Level Pressure 30.19 in    
Wind  
Wind Speed 6 mph (NE)    
Max Wind Speed 14 mph    
Max Gust Speed 22 mph    
Visibility 10 miles    
Events      
Averages and records for this station are not official NWS values.
T = Trace of Precipitation, MM = Missing Value Source: NWS Daily Summary

Daily Weather History Graph

Daily Weather History Graph

Search for Another Location

Airport or City:

Trip Planner

Search our weather history database for the weather conditions in past years. The results will help you decide how hot, cold, wet, or windy it might be!

Date:

Astronomy

Apr. 27, 2013 Rise Set
Actual Time 6:49 AM EDT 8:01 PM EDT
Civil Twilight 6:25 AM EDT 8:26 PM EDT
Nautical Twilight 5:55 AM EDT 8:55 PM EDT
Astronomical Twilight 5:25 AM EDT 9:26 PM EDT
Moon 10:20 PM EDT (4/27) 8:14 AM EDT (4/27)
Length of Visible Light 14h 01m
Length of Day
13h 11m
Waning Gibbous, 95% of the Moon is Illuminated
Apr 27
Waning Gibbous
May 2
Last Quarter
May 9
New
May 18
First Quarter
May 25
Full

Hourly Weather History & Observations

Time (EDT) Temp. Heat Index Dew Point Humidity Pressure Visibility Wind Dir Wind Speed Gust Speed Precip Events Conditions
12:15 AM 69.8 °F - 64.4 °F 83% 30.26 in 10.0 mi NNE 5.8 mph - N/A   Unknown
12:35 AM 69.8 °F - 64.4 °F 83% 30.26 in 10.0 mi NE 5.8 mph - N/A   Unknown
12:55 AM 69.8 °F - 64.4 °F 83% 30.25 in 10.0 mi NE 5.8 mph - N/A   Unknown
1:15 AM 68.0 °F - 64.4 °F 88% 30.24 in 10.0 mi NE 3.5 mph - N/A   Unknown
1:35 AM 68.0 °F - 64.4 °F 88% 30.23 in 10.0 mi NNE 4.6 mph - N/A   Unknown
1:55 AM 66.2 °F - 64.4 °F 94% 30.22 in 10.0 mi East 3.5 mph - N/A   Unknown
2:15 AM 66.2 °F - 64.4 °F 94% 30.22 in 10.0 mi NE 4.6 mph - N/A   Unknown
2:35 AM 66.2 °F - 64.4 °F 94% 30.21 in 10.0 mi NE 3.5 mph - N/A   Unknown
2:55 AM 66.2 °F - 64.4 °F 94% 30.21 in 10.0 mi NNE 3.5 mph - N/A   Unknown
3:15 AM 66.2 °F - 64.4 °F 94% 30.21 in 10.0 mi NNE 4.6 mph - N/A   Unknown
3:35 AM 66.2 °F - 64.4 °F 94% 30.21 in 10.0 mi NNE 3.5 mph - N/A   Unknown
3:55 AM 66.2 °F - 64.4 °F 94% 30.21 in 10.0 mi NNE 3.5 mph - N/A   Unknown
4:15 AM 66.2 °F - 64.4 °F 94% 30.20 in 10.0 mi NNE 3.5 mph - N/A   Unknown
4:35 AM 66.2 °F - 64.4 °F 94% 30.20 in 10.0 mi NNE 3.5 mph - N/A   Unknown
4:55 AM 66.2 °F - 64.4 °F 94% 30.20 in 10.0 mi NNE 3.5 mph - N/A   Unknown
5:15 AM 66.2 °F - 64.4 °F 94% 30.20 in 10.0 mi NNE 4.6 mph - N/A   Unknown
5:35 AM 66.2 °F - 64.4 °F 94% 30.20 in 10.0 mi NE 4.6 mph - N/A   Unknown
5:55 AM 64.4 °F - 64.4 °F 100% 30.20 in 10.0 mi NNE 4.6 mph - N/A   Unknown
6:15 AM 64.4 °F - 64.4 °F 100% 30.20 in 10.0 mi NNE 4.6 mph - N/A   Unknown
7:35 AM 66.2 °F - 64.4 °F 94% 30.22 in 9.0 mi NE 5.8 mph - N/A   Unknown
7:55 AM 66.2 °F - 64.4 °F 94% 30.22 in 10.0 mi NE 6.9 mph - N/A   Unknown
8:15 AM 66.2 °F - 64.4 °F 94% 30.23 in 10.0 mi NE 5.8 mph - N/A   Unknown
8:35 AM 69.8 °F - 66.2 °F 88% 30.23 in 10.0 mi NE 6.9 mph - N/A   Unknown
8:55 AM 69.8 °F - 66.2 °F 88% 30.23 in 10.0 mi NE 8.1 mph - N/A   Unknown
9:15 AM 71.6 °F - 66.2 °F 83% 30.23 in 10.0 mi ENE 8.1 mph - N/A   Unknown
9:35 AM 75.2 °F - 66.2 °F 73% 30.24 in 10.0 mi ENE 8.1 mph - N/A   Unknown
9:55 AM 75.2 °F - 64.4 °F 69% 30.24 in 10.0 mi NE 8.1 mph - N/A   Unknown
10:15 AM 75.2 °F - 64.4 °F 69% 30.24 in 10.0 mi ENE 6.9 mph - N/A   Unknown
10:35 AM 77.0 °F - 64.4 °F 65% 30.24 in 10.0 mi ENE 9.2 mph - N/A   Unknown
10:55 AM 78.8 °F - 64.4 °F 61% 30.24 in 10.0 mi East 9.2 mph - N/A   Unknown
11:15 AM 78.8 °F - 62.6 °F 57% 30.24 in 10.0 mi ENE 10.4 mph - N/A   Unknown
11:35 AM 78.8 °F - 62.6 °F 57% 30.23 in 10.0 mi ESE 9.2 mph - N/A   Unknown
11:55 AM 80.6 °F 81.8 °F 62.6 °F 54% 30.23 in 10.0 mi East 9.2 mph - N/A   Unknown
12:15 PM 80.6 °F 81.8 °F 62.6 °F 54% 30.22 in 10.0 mi East 8.1 mph - N/A   Unknown
12:35 PM 80.6 °F 81.5 °F 60.8 °F 51% 30.21 in 10.0 mi NE 4.6 mph - N/A   Unknown
12:55 PM 82.4 °F 82.5 °F 59.0 °F 45% 30.21 in 10.0 mi ENE 9.2 mph - N/A   Unknown
1:15 PM 82.4 °F 82.9 °F 60.8 °F 48% 30.20 in 10.0 mi ENE 5.8 mph - N/A   Unknown
1:55 PM 82.4 °F 82.0 °F 57.2 °F 42% 30.18 in 10.0 mi NE 12.7 mph 18.4 mph N/A   Unknown
2:15 PM 82.4 °F 82.0 °F 57.2 °F 42% 30.17 in 10.0 mi East 9.2 mph - N/A   Unknown
2:35 PM 84.2 °F 83.8 °F 59.0 °F 42% 30.17 in 10.0 mi ENE 9.2 mph - N/A   Unknown
5:15 PM 82.4 °F 81.7 °F 55.4 °F 39% 30.12 in 10.0 mi ENE 9.2 mph - N/A   Unknown
5:35 PM 82.4 °F 82.0 °F 57.2 °F 42% 30.12 in 10.0 mi East 4.6 mph - N/A   Unknown
5:55 PM 84.2 °F 83.5 °F 57.2 °F 40% 30.12 in 10.0 mi East 10.4 mph - N/A   Unknown
6:15 PM 82.4 °F 81.7 °F 55.4 °F 39% 30.12 in 10.0 mi East 11.5 mph - N/A   Unknown
6:35 PM 82.4 °F 82.0 °F 57.2 °F 42% 30.12 in 10.0 mi ENE 9.2 mph - N/A   Unknown
6:55 PM 80.6 °F 80.8 °F 57.2 °F 45% 30.12 in 10.0 mi ENE 12.7 mph 21.9 mph N/A   Unknown
7:35 PM 78.8 °F - 60.8 °F 54% 30.13 in 10.0 mi ENE 13.8 mph 18.4 mph N/A   Unknown
7:55 PM 77.0 °F - 60.8 °F 57% 30.13 in 10.0 mi ENE 11.5 mph - N/A   Unknown
8:15 PM 75.2 °F - 60.8 °F 61% 30.14 in 10.0 mi East 13.8 mph 17.3 mph N/A   Unknown
8:35 PM 73.4 °F - 59.0 °F 61% 30.15 in 10.0 mi ENE 10.4 mph - N/A   Unknown
8:55 PM 73.4 °F - 60.8 °F 65% 30.15 in 10.0 mi ENE 8.1 mph - N/A   Unknown
9:15 PM 71.6 °F - 60.8 °F 69% 30.15 in 10.0 mi ENE 6.9 mph - N/A   Unknown
9:35 PM 71.6 °F - 60.8 °F 69% 30.16 in 10.0 mi ENE 6.9 mph - N/A   Unknown
9:55 PM 71.6 °F - 60.8 °F 69% 30.16 in 10.0 mi ENE 6.9 mph - N/A   Unknown
10:15 PM 69.8 °F - 60.8 °F 73% 30.17 in 10.0 mi NE 3.5 mph - N/A   Unknown
10:35 PM 69.8 °F - 60.8 °F 73% 30.17 in 10.0 mi ENE 4.6 mph - N/A   Unknown
10:55 PM 69.8 °F - 62.6 °F 78% 30.17 in 10.0 mi ENE 4.6 mph - N/A   Unknown
11:15 PM 68.0 °F - 62.6 °F 83% 30.17 in 10.0 mi ENE 4.6 mph - N/A   Unknown
11:35 PM 68.0 °F - 62.6 °F 83% 30.17 in 10.0 mi ENE 4.6 mph - N/A   Unknown
11:55 PM 68.0 °F - 62.6 °F 83% 30.16 in 10.0 mi East 3.5 mph - N/A   Unknown